Bournemouth, United Kingdom

11:16 AM BST on May 21, 2018 (GMT +0100)
Bournemouth

Weather History for EGHH - November, 2013

Change the Weather History Date:

Saturday, November 16, 2013

  Actual Average Record
Temperature  
Mean Temperature 40 °F -  
Max Temperature 51 °F 49 °F 59 °F (1997)
Min Temperature 28 °F 36 °F 24 °F (1996)
Degree Days  
Heating Degree Days 26    
Moisture  
Dew Point 38 °F    
Average Humidity 90    
Maximum Humidity 100    
Minimum Humidity 67    
Precipitation  
Precipitation 0.01 in 0.11 in - ()
Sea Level Pressure  
Sea Level Pressure 30.47 in    
Wind  
Wind Speed 3 mph ()    
Max Wind Speed 9 mph    
Max Gust Speed -    
Visibility 5.8 miles    
Events Fog    
Averages and records for this station are not official NWS values.
T = Trace of Precipitation, MM = Missing Value Source: Averaged Metar Reports

Daily Weather History Graph

Daily Weather History Graph

Search for Another Location

Airport or City:

Astronomy

Nov. 16, 2013 Rise Set
Actual Time 7:24 AM GMT 4:19 PM GMT
Civil Twilight 6:48 AM GMT 4:55 PM GMT
Nautical Twilight 6:07 AM GMT 5:35 PM GMT
Astronomical Twilight 5:29 AM GMT 6:14 PM GMT
Moon 3:50 PM GMT (11/16) 5:59 AM GMT (11/16)
Length of Visible Light 10h 07m
Length of Day
8h 54m
Waxing Gibbous, 99% of the Moon is Illuminated
Nov 16
Waxing Gibbous
Nov 17
Full
Nov 25
Last Quarter
Dec 3
New
Dec 9
First Quarter

Hourly Weather History & Observations

Time (GMT) Temp. Windchill Dew Point Humidity Pressure Visibility Wind Dir Wind Speed Gust Speed Precip Events Conditions
12:00 AM 34 °F - 33 °F 93% 30.55 in 3 mi NNW 3.5 mph - -   Mist
12:20 AM 32.0 °F 28.7 °F 32.0 °F 100% 30.51 in - North 3.5 mph - N/A   Clear
1:20 AM 32.0 °F 28.7 °F 30.2 °F 93% 30.51 in - NW 3.5 mph - N/A   Clear
1:50 AM 32.0 °F - 30.2 °F 93% 30.51 in - North 2.3 mph - N/A   Clear
2:20 AM 32.0 °F - 30.2 °F 93% 30.51 in 6.2 mi North 2.3 mph - N/A Fog Shallow Fog
2:50 AM 30.2 °F 26.7 °F 28.4 °F 93% 30.51 in 4.3 mi West 3.5 mph - N/A   Unknown
3:00 AM 29 °F - 29 °F 99% 30.53 in 4 mi West 3.5 mph - - Fog Fog
3:20 AM 28.4 °F - 28.4 °F 100% 30.51 in 3.7 mi NW 2.3 mph - N/A   Unknown
3:50 AM 30.2 °F - 28.4 °F 93% 30.51 in 4.3 mi NW 2.3 mph - N/A   Unknown
4:20 AM 30.2 °F - 28.4 °F 93% 30.48 in 4.3 mi NNW 2.3 mph - N/A   Unknown
4:50 AM 30.2 °F - 30.2 °F 100% 30.51 in 4.3 mi North 2.3 mph - N/A   Unknown
5:20 AM 28.4 °F 24.6 °F 28.4 °F 100% 30.48 in 5.0 mi NW 3.5 mph - N/A   Unknown
5:50 AM 28.4 °F - 28.4 °F 100% 30.51 in 4.3 mi WNW 1.2 mph - N/A   Unknown
6:00 AM 29 °F - 28 °F 96% 30.52 in 6 mi WNW 1.2 mph - -   Mist
6:50 AM 28.4 °F - 28.4 °F 100% 30.51 in 5.0 mi North 1.2 mph - N/A   Unknown
7:20 AM 28.4 °F - 28.4 °F 100% 30.51 in 5.6 mi NNW 2.3 mph - N/A   Unknown
7:50 AM 28.4 °F - 28.4 °F 100% 30.51 in 4.3 mi West 1.2 mph - N/A   Unknown
8:20 AM 28.4 °F 24.6 °F 28.4 °F 100% 30.51 in 5.0 mi WNW 3.5 mph - N/A   Unknown
8:50 AM 32.0 °F 28.7 °F 32.0 °F 100% 30.51 in 4.3 mi WNW 3.5 mph - N/A   Unknown
9:00 AM 31 °F - 31 °F 100% 30.54 in 4 mi WNW 3.5 mph - -   Mist
9:20 AM 33.8 °F - 33.8 °F 100% 30.51 in 5.0 mi North 2.3 mph - N/A   Unknown
9:50 AM 37.4 °F - 37.4 °F 100% 30.51 in - NNW 2.3 mph - N/A   Clear
10:20 AM 41.0 °F - 39.2 °F 93% 30.51 in - Variable 1.2 mph - N/A   Clear
10:50 AM 46.4 °F - 41.0 °F 81% 30.51 in - West 1.2 mph - N/A   Clear
11:20 AM 46.4 °F 45.2 °F 42.8 °F 87% 30.48 in - North 3.5 mph - N/A   Clear
11:50 AM 48.2 °F - 41.0 °F 76% 30.48 in - Variable 4.6 mph - N/A   Clear
12:00 PM 49 °F - 42 °F 67% 30.49 in 15 mi NW 4.6 mph - -  
12:20 PM 50.0 °F - 42.8 °F 76% 30.48 in 6.2 mi NW 5.8 mph - N/A   Scattered Clouds
12:50 PM 48.2 °F - 41.0 °F 76% 30.48 in 6.2 mi NNW 9.2 mph - N/A   Scattered Clouds
1:20 PM 51.8 °F - 42.8 °F 71% 30.48 in 6.2 mi Variable 3.5 mph - N/A   Scattered Clouds
1:50 PM 50.0 °F - 42.8 °F 76% 30.45 in 6.2 mi NNW 5.8 mph - N/A   Scattered Clouds
2:20 PM 50.0 °F - 42.8 °F 76% 30.45 in 6.2 mi Variable 3.5 mph - N/A   Mostly Cloudy
2:50 PM 50.0 °F - 42.8 °F 76% 30.45 in 6.2 mi NW 3.5 mph - N/A   Mostly Cloudy
3:00 PM 50 °F - 44 °F 71% 30.45 in 13 mi NW 3.5 mph - -   Mostly Cloudy
3:20 PM 50.0 °F - 44.6 °F 82% 30.42 in 6.2 mi Variable 3.5 mph - N/A   Overcast
3:50 PM 48.2 °F - 44.6 °F 87% 30.42 in 6.2 mi NNE 3.5 mph - N/A   Mostly Cloudy
4:20 PM 48.2 °F - 42.8 °F 82% 30.42 in 6.2 mi North 3.5 mph - N/A   Overcast
4:50 PM 48.2 °F - 42.8 °F 82% 30.42 in 6.2 mi NE 2.3 mph - N/A   Overcast
5:20 PM 46.4 °F 45.2 °F 44.6 °F 93% 30.42 in 6.2 mi North 3.5 mph - N/A   Overcast
5:50 PM 46.4 °F 45.2 °F 44.6 °F 93% 30.42 in 6.2 mi NNW 3.5 mph - N/A   Overcast
6:00 PM 47 °F - 44 °F 85% 30.44 in 11 mi NNW 3.5 mph - -   Overcast
6:20 PM 46.4 °F 45.2 °F 44.6 °F 93% 30.42 in 6.2 mi North 3.5 mph - N/A   Overcast
6:50 PM 46.4 °F - 44.6 °F 93% 30.42 in - NE 1.2 mph - N/A   Clear
7:20 PM 46.4 °F - 44.6 °F 93% 30.42 in 6.2 mi NNE 2.3 mph - N/A   Overcast
7:50 PM 46.4 °F 45.2 °F 44.6 °F 93% 30.42 in 5.6 mi North 3.5 mph - N/A   Overcast
8:20 PM 46.4 °F - 44.6 °F 93% 30.42 in 5.0 mi North 2.3 mph - N/A   Overcast
8:50 PM 46.4 °F 43.5 °F 44.6 °F 93% 30.42 in 5.0 mi North 5.8 mph - N/A   Overcast
9:00 PM 46 °F - 44 °F 91% 30.42 in 5 mi North 5.8 mph - -   Light Haze
9:20 PM 46.4 °F 43.5 °F 44.6 °F 93% 30.39 in 5.0 mi NNE 5.8 mph - N/A   Overcast
9:50 PM 46.4 °F 43.5 °F 44.6 °F 93% 30.39 in 5.0 mi NNE 5.8 mph - N/A   Overcast
10:20 PM 46.4 °F 44.3 °F 42.8 °F 87% 30.39 in 5.0 mi North 4.6 mph - N/A   Overcast